GEFSNGP_prec_meanprecacc_210.txt.gz
Total_Precipitation_Accumulation
0.23 0.24 0.32 0.52 0.62 0.60 0.57 0.63 0.86 0.87 0.79 0.75 0.70 0.72 0.73 0.76 0.74 0.66 0.61 0.62 0.65 0.69 0.69 0.66 0.62 0.66 0.69 0.75 0.85 1.01 1.14 1.13 0.98 0.80 0.67 0.60 0.56 0.50 0.48 0.49 0.50 0.57 0.64 0.68
0.11 0.12 0.20 0.35 0.46 0.47 0.45 0.44 0.53 0.60 0.59 0.49 0.47 0.52 0.52 0.53 0.49 0.46 0.42 0.39 0.37 0.37 0.38 0.37 0.34 0.31 0.31 0.38 0.53 0.79 1.04 1.02 0.80 0.63 0.51 0.46 0.47 0.47 0.43 0.42 0.47 0.52 0.52 0.56
0.12 0.09 0.16 0.38 0.41 0.38 0.39 0.31 0.32 0.37 0.38 0.34 0.36 0.43 0.44 0.47 0.47 0.37 0.29 0.28 0.27 0.25 0.24 0.24 0.22 0.21 0.22 0.30 0.42 0.59 0.70 0.67 0.57 0.46 0.44 0.47 0.50 0.45 0.43 0.44 0.44 0.46 0.46 0.47
0.14 0.16 0.40 0.64 0.56 0.47 0.43 0.25 0.17 0.19 0.21 0.24 0.34 0.37 0.38 0.37 0.36 0.35 0.26 0.19 0.19 0.18 0.17 0.19 0.20 0.23 0.27 0.31 0.36 0.41 0.45 0.46 0.40 0.37 0.39 0.42 0.44 0.43 0.50 0.55 0.52 0.51 0.52 0.52
0.23 0.29 0.50 0.59 0.52 0.52 0.51 0.35 0.15 0.13 0.14 0.14 0.13 0.15 0.18 0.19 0.17 0.17 0.13 0.11 0.11 0.10 0.10 0.10 0.10 0.11 0.12 0.14 0.15 0.16 0.16 0.18 0.17 0.17 0.19 0.21 0.23 0.30 0.41 0.47 0.50 0.53 0.56 0.57
0.28 0.37 0.49 0.40 0.25 0.27 0.40 0.47 0.13 0.08 0.07 0.06 0.04 0.07 0.10 0.11 0.12 0.09 0.07 0.08 0.08 0.07 0.08 0.08 0.08 0.07 0.05 0.04 0.05 0.05 0.05 0.05 0.07 0.07 0.08 0.09 0.12 0.16 0.23 0.24 0.29 0.39 0.42 0.45
0.29 0.47 0.66 0.47 0.27 0.25 0.44 0.44 0.10 0.05 0.04 0.03 0.04 0.03 0.04 0.08 0.10 0.09 0.08 0.08 0.08 0.08 0.08 0.09 0.09 0.08 0.07 0.05 0.04 0.04 0.05 0.06 0.06 0.06 0.06 0.07 0.08 0.10 0.14 0.15 0.20 0.23 0.27 0.33
0.36 0.64 0.85 0.65 0.43 0.37 0.29 0.13 0.05 0.02 0.02 0.02 0.02 0.02 0.03 0.06 0.08 0.08 0.07 0.08 0.08 0.07 0.08 0.09 0.08 0.08 0.08 0.08 0.06 0.05 0.06 0.06 0.05 0.06 0.07 0.07 0.07 0.09 0.11 0.12 0.14 0.16 0.17 0.22
0.30 0.50 0.54 0.49 0.37 0.27 0.19 0.09 0.03 0.01 0.01 0.01 0.02 0.02 0.03 0.04 0.05 0.05 0.06 0.06 0.07 0.08 0.08 0.08 0.08 0.08 0.08 0.08 0.08 0.07 0.06 0.05 0.06 0.07 0.06 0.07 0.08 0.10 0.10 0.11 0.13 0.15 0.18 0.25
0.10 0.15 0.18 0.20 0.20 0.13 0.11 0.07 0.02 0.01 0.01 0.01 0.02 0.02 0.02 0.04 0.06 0.06 0.05 0.06 0.06 0.08 0.08 0.09 0.09 0.09 0.10 0.09 0.07 0.06 0.06 0.06 0.06 0.07 0.06 0.07 0.08 0.09 0.11 0.11 0.13 0.17 0.23 0.28
0.10 0.07 0.06 0.09 0.11 0.10 0.06 0.03 0.02 0.01 0.02 0.02 0.02 0.03 0.02 0.04 0.07 0.08 0.07 0.08 0.10 0.11 0.10 0.09 0.11 0.11 0.13 0.13 0.09 0.06 0.05 0.06 0.06 0.06 0.06 0.06 0.06 0.06 0.08 0.09 0.12 0.19 0.26 0.31
0.10 0.06 0.05 0.06 0.06 0.05 0.04 0.02 0.01 0.01 0.01 0.01 0.01 0.02 0.02 0.03 0.04 0.07 0.08 0.07 0.09 0.10 0.10 0.09 0.09 0.11 0.12 0.14 0.14 0.13 0.09 0.06 0.05 0.05 0.06 0.07 0.07 0.07 0.07 0.09 0.13 0.16 0.16 0.19
0.06 0.05 0.04 0.04 0.03 0.03 0.02 0.01 0.01 0.00 0.01 0.01 0.00 0.01 0.02 0.02 0.03 0.05 0.07 0.06 0.06 0.06 0.07 0.08 0.08 0.07 0.07 0.08 0.09 0.10 0.11 0.09 0.07 0.06 0.06 0.07 0.09 0.10 0.12 0.10 0.08 0.08 0.08 0.10
0.05 0.06 0.06 0.04 0.03 0.03 0.02 0.02 0.01 0.01 0.01 0.00 0.00 0.01 0.01 0.02 0.02 0.03 0.05 0.05 0.06 0.06 0.06 0.06 0.07 0.06 0.05 0.04 0.05 0.06 0.07 0.08 0.08 0.10 0.12 0.12 0.13 0.16 0.21 0.24 0.21 0.14 0.09 0.08
0.04 0.05 0.05 0.05 0.05 0.04 0.04 0.04 0.03 0.02 0.01 0.01 0.01 0.00 0.01 0.01 0.02 0.03 0.04 0.05 0.05 0.06 0.05 0.05 0.05 0.05 0.05 0.03 0.03 0.04 0.04 0.06 0.09 0.15 0.18 0.16 0.18 0.23 0.24 0.20 0.17 0.15 0.13 0.11
0.06 0.06 0.06 0.06 0.06 0.05 0.04 0.03 0.03 0.02 0.02 0.01 0.01 0.01 0.01 0.02 0.02 0.03 0.04 0.05 0.05 0.05 0.05 0.05 0.05 0.05 0.04 0.03 0.03 0.03 0.04 0.05 0.07 0.13 0.16 0.15 0.16 0.18 0.18 0.17 0.15 0.16 0.16 0.16
0.07 0.07 0.07 0.08 0.08 0.05 0.04 0.03 0.02 0.02 0.02 0.03 0.03 0.02 0.02 0.02 0.03 0.04 0.04 0.05 0.05 0.05 0.05 0.05 0.06 0.05 0.04 0.03 0.03 0.04 0.05 0.06 0.08 0.10 0.12 0.11 0.12 0.13 0.14 0.17 0.18 0.19 0.18 0.18
0.05 0.05 0.06 0.07 0.07 0.05 0.03 0.03 0.02 0.02 0.02 0.02 0.03 0.03 0.04 0.04 0.05 0.06 0.06 0.06 0.06 0.07 0.07 0.07 0.07 0.06 0.05 0.05 0.05 0.05 0.07 0.09 0.11 0.13 0.14 0.12 0.13 0.15 0.18 0.19 0.19 0.20 0.20 0.21
0.06 0.05 0.05 0.05 0.05 0.04 0.03 0.03 0.02 0.02 0.02 0.02 0.03 0.03 0.04 0.05 0.05 0.05 0.06 0.07 0.07 0.06 0.05 0.06 0.07 0.06 0.05 0.05 0.07 0.08 0.09 0.10 0.12 0.15 0.16 0.15 0.16 0.19 0.21 0.21 0.20 0.22 0.23 0.24
0.07 0.06 0.05 0.05 0.04 0.03 0.03 0.02 0.02 0.03 0.03 0.03 0.04 0.04 0.05 0.05 0.07 0.07 0.08 0.08 0.08 0.07 0.05 0.05 0.07 0.07 0.06 0.07 0.09 0.10 0.12 0.15 0.18 0.20 0.20 0.19 0.21 0.22 0.22 0.22 0.23 0.25 0.25 0.26
0.06 0.04 0.04 0.04 0.03 0.03 0.03 0.03 0.04 0.04 0.04 0.04 0.05 0.05 0.06 0.06 0.08 0.09 0.09 0.09 0.08 0.07 0.06 0.07 0.06 0.06 0.07 0.09 0.12 0.15 0.16 0.18 0.19 0.21 0.22 0.21 0.22 0.23 0.24 0.24 0.26 0.28 0.28 0.27
0.07 0.05 0.05 0.04 0.03 0.03 0.04 0.05 0.06 0.05 0.05 0.05 0.06 0.06 0.06 0.07 0.07 0.08 0.08 0.09 0.09 0.10 0.09 0.08 0.08 0.09 0.12 0.13 0.12 0.14 0.16 0.18 0.20 0.23 0.25 0.25 0.26 0.27 0.28 0.30 0.31 0.33 0.34 0.36
0.10 0.08 0.07 0.06 0.06 0.06 0.08 0.08 0.06 0.06 0.06 0.06 0.07 0.08 0.09 0.09 0.09 0.09 0.08 0.08 0.10 0.13 0.12 0.12 0.14 0.17 0.20 0.15 0.12 0.14 0.16 0.17 0.18 0.21 0.26 0.31 0.33 0.34 0.34 0.33 0.33 0.35 0.37 0.41
0.11 0.10 0.08 0.08 0.08 0.10 0.12 0.10 0.08 0.07 0.07 0.08 0.08 0.09 0.10 0.11 0.11 0.11 0.11 0.13 0.15 0.16 0.15 0.15 0.18 0.22 0.23 0.18 0.17 0.18 0.19 0.20 0.20 0.21 0.23 0.27 0.32 0.33 0.34 0.34 0.35 0.35 0.36 0.37
0.11 0.11 0.11 0.12 0.14 0.16 0.14 0.12 0.12 0.12 0.12 0.13 0.12 0.12 0.12 0.13 0.14 0.14 0.13 0.15 0.18 0.19 0.18 0.19 0.22 0.23 0.21 0.21 0.22 0.23 0.25 0.27 0.28 0.29 0.29 0.30 0.32 0.35 0.37 0.38 0.40 0.42 0.42 0.41
0.11 0.12 0.15 0.19 0.20 0.17 0.15 0.15 0.14 0.14 0.14 0.15 0.15 0.14 0.14 0.14 0.14 0.14 0.14 0.15 0.17 0.20 0.21 0.21 0.22 0.22 0.23 0.26 0.29 0.30 0.30 0.31 0.31 0.31 0.33 0.35 0.37 0.40 0.43 0.45 0.46 0.49 0.50 0.47
0.11 0.13 0.17 0.18 0.18 0.17 0.17 0.17 0.15 0.14 0.14 0.16 0.16 0.14 0.15 0.16 0.17 0.17 0.17 0.17 0.19 0.22 0.25 0.26 0.27 0.29 0.31 0.33 0.34 0.35 0.36 0.37 0.37 0.36 0.37 0.40 0.42 0.43 0.46 0.50 0.53 0.57 0.58 0.56

GEFSNGP_prec_meanprecacc_216.txt.gz
Total_Precipitation_Accumulation
0.23 0.24 0.32 0.53 0.63 0.60 0.57 0.63 0.86 0.87 0.79 0.75 0.70 0.72 0.74 0.77 0.74 0.66 0.62 0.63 0.66 0.70 0.70 0.67 0.63 0.66 0.70 0.76 0.87 1.02 1.16 1.14 1.00 0.81 0.68 0.62 0.59 0.51 0.49 0.50 0.51 0.58 0.65 0.69
0.11 0.12 0.21 0.36 0.46 0.48 0.45 0.44 0.53 0.60 0.59 0.49 0.47 0.52 0.53 0.54 0.49 0.46 0.42 0.39 0.38 0.38 0.39 0.38 0.34 0.31 0.31 0.39 0.55 0.79 1.05 1.02 0.81 0.64 0.51 0.48 0.49 0.48 0.44 0.43 0.48 0.53 0.52 0.56
0.13 0.09 0.16 0.38 0.41 0.39 0.39 0.31 0.32 0.37 0.38 0.34 0.37 0.43 0.44 0.48 0.48 0.37 0.30 0.28 0.28 0.26 0.26 0.25 0.23 0.21 0.23 0.31 0.43 0.59 0.71 0.68 0.58 0.47 0.45 0.48 0.50 0.46 0.44 0.45 0.45 0.47 0.46 0.48
0.15 0.17 0.41 0.64 0.56 0.47 0.44 0.25 0.17 0.19 0.21 0.25 0.35 0.38 0.38 0.37 0.37 0.36 0.26 0.19 0.20 0.19 0.18 0.20 0.21 0.24 0.27 0.31 0.37 0.42 0.46 0.47 0.42 0.39 0.41 0.43 0.44 0.44 0.51 0.56 0.53 0.52 0.53 0.52
0.24 0.30 0.50 0.59 0.52 0.52 0.51 0.35 0.15 0.13 0.14 0.14 0.13 0.15 0.18 0.19 0.18 0.17 0.14 0.11 0.11 0.11 0.10 0.11 0.11 0.12 0.13 0.15 0.16 0.17 0.17 0.19 0.19 0.19 0.21 0.22 0.24 0.30 0.41 0.48 0.51 0.54 0.58 0.58
0.29 0.37 0.49 0.40 0.25 0.27 0.40 0.47 0.13 0.08 0.07 0.06 0.04 0.07 0.10 0.11 0.12 0.10 0.07 0.08 0.08 0.08 0.08 0.09 0.09 0.08 0.05 0.05 0.06 0.06 0.06 0.07 0.09 0.10 0.10 0.10 0.13 0.16 0.23 0.24 0.30 0.40 0.43 0.46
0.30 0.48 0.66 0.47 0.27 0.25 0.44 0.44 0.10 0.05 0.04 0.03 0.04 0.03 0.05 0.08 0.10 0.09 0.08 0.09 0.08 0.08 0.08 0.10 0.10 0.09 0.08 0.06 0.05 0.06 0.07 0.09 0.09 0.09 0.08 0.08 0.09 0.11 0.14 0.15 0.20 0.24 0.28 0.34
0.37 0.65 0.85 0.65 0.43 0.37 0.29 0.13 0.06 0.02 0.02 0.02 0.02 0.03 0.03 0.06 0.08 0.08 0.08 0.08 0.08 0.07 0.08 0.09 0.09 0.09 0.09 0.09 0.08 0.07 0.08 0.08 0.09 0.09 0.10 0.09 0.09 0.10 0.11 0.13 0.14 0.16 0.18 0.23
0.30 0.51 0.54 0.49 0.37 0.27 0.20 0.10 0.03 0.02 0.02 0.01 0.02 0.02 0.03 0.05 0.05 0.05 0.06 0.07 0.07 0.08 0.08 0.09 0.09 0.09 0.09 0.10 0.10 0.09 0.09 0.09 0.09 0.10 0.10 0.09 0.10 0.12 0.11 0.12 0.14 0.16 0.18 0.25
0.11 0.16 0.18 0.20 0.20 0.14 0.11 0.07 0.03 0.02 0.02 0.02 0.02 0.02 0.03 0.05 0.06 0.06 0.05 0.06 0.07 0.08 0.08 0.09 0.10 0.10 0.11 0.11 0.10 0.08 0.09 0.10 0.11 0.11 0.11 0.11 0.11 0.12 0.12 0.13 0.14 0.18 0.23 0.28
0.11 0.08 0.06 0.10 0.11 0.10 0.07 0.04 0.02 0.02 0.02 0.03 0.03 0.04 0.03 0.04 0.07 0.08 0.07 0.08 0.10 0.11 0.10 0.10 0.11 0.12 0.14 0.14 0.11 0.09 0.09 0.10 0.10 0.10 0.10 0.10 0.11 0.10 0.10 0.10 0.13 0.20 0.27 0.32
0.11 0.07 0.06 0.06 0.07 0.05 0.04 0.02 0.01 0.01 0.02 0.02 0.01 0.02 0.02 0.03 0.04 0.07 0.08 0.08 0.09 0.11 0.11 0.10 0.10 0.11 0.13 0.15 0.16 0.15 0.12 0.10 0.10 0.09 0.09 0.09 0.10 0.10 0.10 0.10 0.14 0.17 0.17 0.19
0.07 0.06 0.05 0.05 0.04 0.03 0.03 0.02 0.02 0.01 0.02 0.02 0.02 0.02 0.02 0.02 0.03 0.05 0.07 0.07 0.07 0.07 0.08 0.09 0.09 0.09 0.08 0.10 0.11 0.12 0.14 0.14 0.11 0.09 0.09 0.10 0.11 0.12 0.14 0.12 0.09 0.09 0.09 0.11
0.05 0.06 0.06 0.05 0.04 0.04 0.03 0.03 0.03 0.02 0.01 0.01 0.02 0.02 0.02 0.02 0.02 0.03 0.05 0.05 0.06 0.07 0.07 0.07 0.08 0.08 0.07 0.06 0.07 0.08 0.10 0.11 0.11 0.13 0.14 0.14 0.15 0.18 0.22 0.25 0.22 0.15 0.10 0.08
0.05 0.06 0.06 0.05 0.05 0.05 0.05 0.05 0.05 0.05 0.03 0.02 0.02 0.01 0.01 0.02 0.02 0.03 0.04 0.05 0.06 0.07 0.06 0.07 0.07 0.07 0.07 0.06 0.05 0.05 0.06 0.08 0.11 0.17 0.21 0.19 0.20 0.25 0.27 0.22 0.19 0.16 0.14 0.11
0.07 0.07 0.07 0.07 0.07 0.06 0.05 0.05 0.05 0.05 0.05 0.04 0.03 0.02 0.02 0.02 0.03 0.03 0.04 0.05 0.06 0.07 0.07 0.08 0.08 0.08 0.07 0.06 0.06 0.05 0.06 0.07 0.10 0.15 0.19 0.18 0.18 0.19 0.20 0.20 0.18 0.20 0.20 0.19
0.08 0.09 0.09 0.10 0.09 0.07 0.05 0.04 0.04 0.04 0.05 0.05 0.05 0.04 0.03 0.03 0.03 0.04 0.04 0.05 0.06 0.07 0.07 0.07 0.08 0.08 0.07 0.07 0.07 0.07 0.07 0.09 0.11 0.13 0.15 0.14 0.15 0.16 0.17 0.20 0.21 0.23 0.23 0.23
0.07 0.07 0.08 0.09 0.09 0.07 0.05 0.04 0.04 0.04 0.04 0.04 0.04 0.05 0.05 0.05 0.05 0.06 0.06 0.06 0.07 0.08 0.08 0.09 0.09 0.10 0.09 0.09 0.09 0.09 0.10 0.12 0.13 0.15 0.16 0.15 0.16 0.18 0.21 0.22 0.21 0.22 0.23 0.24
0.09 0.09 0.08 0.09 0.08 0.07 0.06 0.05 0.04 0.04 0.04 0.04 0.04 0.04 0.05 0.05 0.05 0.06 0.06 0.07 0.07 0.07 0.07 0.09 0.10 0.10 0.09 0.10 0.11 0.11 0.13 0.14 0.16 0.18 0.18 0.18 0.19 0.21 0.23 0.23 0.22 0.23 0.25 0.25
0.11 0.10 0.09 0.09 0.07 0.06 0.06 0.05 0.05 0.05 0.04 0.04 0.05 0.05 0.06 0.06 0.07 0.07 0.08 0.08 0.08 0.07 0.06 0.07 0.10 0.11 0.11 0.11 0.12 0.13 0.14 0.18 0.21 0.23 0.23 0.22 0.23 0.23 0.24 0.23 0.24 0.26 0.26 0.27
0.09 0.08 0.07 0.07 0.06 0.05 0.05 0.05 0.06 0.06 0.05 0.05 0.05 0.06 0.06 0.06 0.08 0.09 0.09 0.09 0.08 0.08 0.07 0.08 0.08 0.08 0.10 0.13 0.16 0.17 0.19 0.20 0.22 0.24 0.24 0.23 0.23 0.24 0.25 0.25 0.26 0.28 0.28 0.27
0.10 0.08 0.06 0.05 0.04 0.04 0.04 0.06 0.07 0.06 0.06 0.06 0.06 0.06 0.06 0.07 0.07 0.08 0.08 0.09 0.09 0.10 0.10 0.10 0.10 0.11 0.14 0.16 0.14 0.16 0.18 0.20 0.22 0.26 0.27 0.27 0.27 0.28 0.29 0.30 0.32 0.33 0.35 0.36
0.11 0.10 0.08 0.07 0.06 0.06 0.08 0.09 0.07 0.06 0.06 0.07 0.07 0.08 0.09 0.09 0.09 0.09 0.09 0.09 0.10 0.13 0.13 0.13 0.15 0.18 0.22 0.18 0.14 0.15 0.17 0.19 0.20 0.23 0.28 0.32 0.34 0.35 0.35 0.33 0.33 0.35 0.38 0.42
0.12 0.11 0.09 0.08 0.08 0.10 0.12 0.11 0.08 0.08 0.08 0.08 0.08 0.09 0.11 0.12 0.12 0.11 0.12 0.14 0.15 0.17 0.16 0.16 0.20 0.24 0.25 0.20 0.18 0.19 0.20 0.21 0.22 0.22 0.25 0.29 0.33 0.34 0.35 0.35 0.36 0.36 0.37 0.38
0.12 0.12 0.12 0.12 0.15 0.17 0.15 0.13 0.13 0.12 0.12 0.13 0.13 0.12 0.12 0.14 0.15 0.15 0.14 0.15 0.18 0.20 0.19 0.20 0.23 0.25 0.24 0.23 0.23 0.23 0.26 0.28 0.30 0.30 0.30 0.31 0.33 0.36 0.38 0.38 0.41 0.43 0.43 0.42
0.13 0.13 0.16 0.20 0.21 0.19 0.17 0.17 0.16 0.15 0.15 0.16 0.15 0.15 0.15 0.16 0.16 0.15 0.15 0.17 0.18 0.21 0.22 0.22 0.23 0.24 0.25 0.28 0.30 0.30 0.31 0.31 0.32 0.32 0.34 0.36 0.38 0.40 0.43 0.46 0.47 0.51 0.51 0.48
0.13 0.15 0.18 0.20 0.19 0.19 0.19 0.18 0.17 0.15 0.15 0.17 0.17 0.16 0.16 0.18 0.19 0.19 0.19 0.19 0.20 0.23 0.26 0.27 0.28 0.30 0.32 0.35 0.35 0.36 0.37 0.38 0.38 0.37 0.38 0.41 0.43 0.44 0.47 0.51 0.54 0.58 0.59 0.58

GEFSNGP_prec_meanprecacc_222.txt.gz
Total_Precipitation_Accumulation
0.24 0.25 0.33 0.53 0.63 0.61 0.58 0.64 0.87 0.87 0.79 0.75 0.70 0.72 0.74 0.77 0.74 0.67 0.62 0.64 0.68 0.73 0.72 0.68 0.64 0.67 0.70 0.77 0.88 1.03 1.16 1.15 1.00 0.81 0.69 0.63 0.59 0.52 0.51 0.51 0.52 0.59 0.66 0.69
0.11 0.12 0.21 0.36 0.47 0.48 0.45 0.44 0.53 0.60 0.59 0.49 0.48 0.52 0.53 0.54 0.50 0.47 0.43 0.40 0.39 0.40 0.40 0.39 0.35 0.31 0.31 0.39 0.55 0.80 1.05 1.03 0.81 0.64 0.52 0.48 0.50 0.49 0.45 0.45 0.50 0.55 0.54 0.57
0.13 0.10 0.17 0.38 0.41 0.39 0.39 0.31 0.32 0.37 0.38 0.34 0.37 0.43 0.44 0.48 0.48 0.37 0.30 0.29 0.28 0.27 0.27 0.25 0.24 0.22 0.23 0.31 0.43 0.60 0.71 0.68 0.58 0.48 0.45 0.49 0.51 0.46 0.45 0.46 0.46 0.49 0.48 0.49
0.15 0.17 0.41 0.65 0.56 0.47 0.44 0.25 0.17 0.19 0.21 0.25 0.35 0.38 0.38 0.37 0.37 0.36 0.26 0.20 0.20 0.19 0.19 0.21 0.21 0.24 0.28 0.32 0.37 0.42 0.46 0.47 0.42 0.39 0.41 0.44 0.45 0.45 0.51 0.57 0.54 0.53 0.54 0.53
0.25 0.30 0.50 0.59 0.52 0.52 0.51 0.35 0.15 0.13 0.14 0.14 0.13 0.16 0.18 0.19 0.18 0.17 0.14 0.11 0.11 0.11 0.10 0.12 0.12 0.12 0.13 0.15 0.16 0.17 0.18 0.19 0.19 0.19 0.21 0.23 0.24 0.31 0.42 0.49 0.52 0.55 0.59 0.59
0.30 0.38 0.50 0.40 0.25 0.27 0.40 0.48 0.13 0.08 0.07 0.06 0.04 0.07 0.10 0.11 0.12 0.10 0.07 0.08 0.08 0.08 0.08 0.09 0.09 0.08 0.06 0.06 0.06 0.06 0.07 0.07 0.09 0.10 0.11 0.11 0.14 0.18 0.24 0.25 0.31 0.41 0.44 0.47
0.30 0.48 0.67 0.47 0.27 0.25 0.45 0.44 0.11 0.05 0.04 0.03 0.04 0.03 0.05 0.08 0.10 0.09 0.08 0.09 0.08 0.08 0.08 0.10 0.11 0.09 0.08 0.07 0.06 0.07 0.08 0.10 0.10 0.09 0.09 0.09 0.10 0.13 0.16 0.17 0.21 0.25 0.30 0.36
0.38 0.66 0.86 0.65 0.43 0.37 0.30 0.14 0.06 0.03 0.02 0.02 0.02 0.03 0.04 0.06 0.08 0.08 0.08 0.08 0.08 0.07 0.08 0.09 0.09 0.09 0.09 0.10 0.09 0.09 0.09 0.09 0.09 0.10 0.10 0.09 0.10 0.12 0.15 0.15 0.16 0.18 0.20 0.26
0.32 0.53 0.55 0.49 0.37 0.27 0.20 0.10 0.03 0.02 0.02 0.02 0.02 0.02 0.03 0.05 0.05 0.05 0.06 0.07 0.08 0.08 0.08 0.09 0.09 0.09 0.09 0.10 0.11 0.10 0.09 0.09 0.10 0.11 0.11 0.10 0.11 0.14 0.14 0.15 0.17 0.18 0.20 0.27
0.11 0.16 0.19 0.21 0.20 0.14 0.11 0.07 0.03 0.02 0.02 0.02 0.02 0.02 0.03 0.05 0.06 0.06 0.06 0.07 0.07 0.09 0.09 0.09 0.10 0.10 0.11 0.11 0.11 0.09 0.10 0.11 0.12 0.12 0.12 0.12 0.13 0.14 0.15 0.16 0.18 0.21 0.26 0.31
0.12 0.08 0.06 0.10 0.11 0.10 0.07 0.04 0.02 0.02 0.02 0.03 0.03 0.04 0.04 0.05 0.09 0.09 0.09 0.09 0.11 0.12 0.11 0.10 0.11 0.13 0.15 0.15 0.12 0.10 0.11 0.12 0.12 0.12 0.12 0.12 0.13 0.13 0.13 0.14 0.17 0.24 0.31 0.36
0.12 0.07 0.06 0.07 0.07 0.06 0.04 0.03 0.02 0.02 0.02 0.03 0.02 0.03 0.04 0.04 0.06 0.08 0.09 0.09 0.10 0.11 0.12 0.11 0.11 0.12 0.14 0.17 0.18 0.18 0.14 0.12 0.11 0.11 0.11 0.11 0.12 0.12 0.13 0.13 0.18 0.20 0.21 0.24
0.07 0.06 0.05 0.05 0.05 0.04 0.04 0.03 0.02 0.02 0.02 0.03 0.03 0.02 0.03 0.03 0.03 0.05 0.07 0.07 0.07 0.07 0.08 0.09 0.10 0.09 0.10 0.12 0.13 0.14 0.15 0.15 0.12 0.10 0.10 0.11 0.12 0.14 0.16 0.14 0.12 0.12 0.13 0.14
0.05 0.06 0.07 0.05 0.05 0.05 0.04 0.04 0.03 0.03 0.03 0.03 0.03 0.02 0.02 0.03 0.02 0.03 0.05 0.05 0.06 0.07 0.07 0.07 0.08 0.08 0.08 0.08 0.09 0.10 0.12 0.13 0.13 0.14 0.15 0.16 0.17 0.20 0.24 0.27 0.25 0.18 0.14 0.12
0.05 0.06 0.06 0.05 0.06 0.06 0.06 0.06 0.05 0.05 0.05 0.05 0.04 0.03 0.02 0.02 0.03 0.04 0.05 0.06 0.07 0.08 0.07 0.07 0.07 0.08 0.08 0.07 0.07 0.08 0.09 0.10 0.13 0.20 0.23 0.21 0.22 0.28 0.30 0.25 0.21 0.19 0.17 0.15
0.07 0.07 0.07 0.07 0.08 0.07 0.06 0.05 0.05 0.06 0.06 0.06 0.06 0.05 0.04 0.03 0.03 0.04 0.05 0.06 0.07 0.08 0.08 0.08 0.09 0.09 0.09 0.08 0.07 0.07 0.08 0.11 0.13 0.17 0.22 0.21 0.20 0.22 0.23 0.23 0.21 0.22 0.22 0.22
0.09 0.09 0.10 0.11 0.10 0.08 0.06 0.05 0.05 0.05 0.06 0.06 0.07 0.06 0.06 0.05 0.05 0.05 0.05 0.06 0.06 0.07 0.07 0.08 0.09 0.09 0.09 0.08 0.08 0.08 0.09 0.12 0.14 0.16 0.18 0.17 0.18 0.19 0.20 0.22 0.24 0.26 0.26 0.26
0.09 0.09 0.10 0.11 0.10 0.08 0.06 0.06 0.06 0.06 0.06 0.06 0.07 0.08 0.08 0.07 0.06 0.06 0.06 0.06 0.07 0.08 0.09 0.09 0.10 0.11 0.11 0.11 0.10 0.10 0.12 0.14 0.15 0.18 0.19 0.18 0.19 0.22 0.25 0.25 0.24 0.25 0.26 0.27
0.14 0.13 0.12 0.12 0.11 0.09 0.08 0.07 0.07 0.07 0.06 0.06 0.06 0.07 0.07 0.07 0.07 0.06 0.07 0.08 0.08 0.07 0.08 0.10 0.12 0.11 0.10 0.11 0.12 0.13 0.14 0.16 0.18 0.20 0.21 0.20 0.21 0.24 0.26 0.26 0.25 0.26 0.27 0.28
0.15 0.13 0.12 0.12 0.11 0.10 0.09 0.08 0.07 0.08 0.07 0.07 0.07 0.07 0.07 0.07 0.08 0.08 0.09 0.09 0.09 0.08 0.07 0.09 0.12 0.12 0.12 0.12 0.14 0.14 0.16 0.19 0.23 0.26 0.27 0.26 0.27 0.27 0.27 0.26 0.28 0.29 0.29 0.29
0.12 0.10 0.10 0.10 0.09 0.09 0.08 0.08 0.08 0.08 0.08 0.07 0.07 0.08 0.08 0.07 0.08 0.09 0.10 0.09 0.08 0.08 0.07 0.09 0.09 0.10 0.12 0.14 0.17 0.18 0.20 0.22 0.24 0.26 0.27 0.27 0.28 0.28 0.30 0.29 0.30 0.32 0.32 0.31
0.13 0.10 0.08 0.08 0.07 0.06 0.07 0.08 0.08 0.07 0.07 0.07 0.07 0.07 0.07 0.08 0.07 0.08 0.08 0.09 0.09 0.11 0.11 0.11 0.10 0.12 0.15 0.18 0.15 0.17 0.19 0.22 0.24 0.28 0.30 0.30 0.30 0.32 0.33 0.34 0.35 0.37 0.38 0.40
0.14 0.12 0.10 0.09 0.07 0.07 0.09 0.10 0.08 0.08 0.08 0.08 0.08 0.09 0.09 0.09 0.09 0.09 0.09 0.09 0.10 0.14 0.14 0.14 0.16 0.19 0.24 0.20 0.15 0.16 0.18 0.20 0.22 0.25 0.30 0.34 0.36 0.38 0.39 0.38 0.39 0.40 0.42 0.45
0.15 0.13 0.10 0.09 0.09 0.11 0.13 0.12 0.09 0.09 0.10 0.10 0.10 0.10 0.11 0.12 0.12 0.12 0.12 0.14 0.15 0.17 0.16 0.17 0.21 0.26 0.28 0.22 0.20 0.20 0.21 0.23 0.23 0.23 0.26 0.30 0.35 0.37 0.38 0.40 0.41 0.43 0.42 0.42
0.15 0.13 0.13 0.13 0.15 0.17 0.15 0.14 0.14 0.14 0.14 0.15 0.15 0.13 0.13 0.14 0.16 0.15 0.14 0.16 0.19 0.21 0.20 0.22 0.25 0.27 0.26 0.25 0.24 0.25 0.27 0.30 0.32 0.32 0.31 0.33 0.35 0.38 0.40 0.42 0.45 0.48 0.48 0.46
0.15 0.14 0.17 0.21 0.22 0.19 0.18 0.18 0.17 0.17 0.17 0.17 0.17 0.16 0.16 0.16 0.16 0.16 0.15 0.17 0.19 0.23 0.26 0.25 0.25 0.26 0.26 0.30 0.32 0.32 0.32 0.33 0.33 0.34 0.36 0.38 0.40 0.42 0.46 0.49 0.50 0.54 0.54 0.51
0.16 0.17 0.19 0.20 0.20 0.19 0.19 0.20 0.18 0.17 0.17 0.18 0.18 0.16 0.17 0.19 0.19 0.20 0.20 0.20 0.22 0.25 0.29 0.31 0.31 0.32 0.35 0.36 0.37 0.37 0.38 0.39 0.39 0.39 0.40 0.43 0.45 0.47 0.49 0.54 0.57 0.61 0.62 0.61

GEFSNGP_prec_meanprecacc_228.txt.gz
Total_Precipitation_Accumulation
0.24 0.25 0.34 0.54 0.64 0.62 0.61 0.67 0.89 0.88 0.80 0.76 0.71 0.74 0.75 0.79 0.76 0.68 0.64 0.65 0.69 0.74 0.74 0.70 0.66 0.69 0.72 0.78 0.88 1.03 1.17 1.15 1.01 0.82 0.69 0.64 0.59 0.52 0.51 0.52 0.53 0.60 0.67 0.70
0.12 0.12 0.21 0.37 0.48 0.49 0.46 0.46 0.54 0.61 0.59 0.50 0.48 0.52 0.53 0.55 0.50 0.47 0.43 0.41 0.40 0.41 0.41 0.39 0.35 0.32 0.33 0.40 0.56 0.81 1.06 1.03 0.82 0.65 0.52 0.49 0.50 0.49 0.45 0.45 0.50 0.55 0.54 0.58
0.14 0.10 0.17 0.39 0.41 0.39 0.39 0.31 0.33 0.39 0.38 0.34 0.37 0.44 0.45 0.49 0.49 0.37 0.30 0.29 0.28 0.28 0.27 0.26 0.24 0.22 0.25 0.32 0.44 0.61 0.72 0.69 0.59 0.48 0.45 0.49 0.51 0.46 0.45 0.46 0.47 0.49 0.48 0.49
0.16 0.18 0.43 0.65 0.56 0.48 0.44 0.25 0.18 0.19 0.22 0.26 0.35 0.38 0.39 0.38 0.37 0.36 0.26 0.20 0.20 0.19 0.19 0.22 0.22 0.25 0.29 0.33 0.38 0.43 0.46 0.47 0.42 0.40 0.41 0.44 0.45 0.45 0.51 0.57 0.54 0.53 0.54 0.54
0.26 0.31 0.51 0.59 0.52 0.52 0.51 0.36 0.16 0.13 0.14 0.14 0.14 0.16 0.18 0.19 0.18 0.18 0.14 0.11 0.11 0.11 0.10 0.12 0.12 0.13 0.14 0.16 0.17 0.18 0.18 0.19 0.20 0.20 0.22 0.24 0.25 0.31 0.42 0.49 0.52 0.55 0.59 0.59
0.31 0.39 0.50 0.40 0.25 0.27 0.40 0.49 0.14 0.09 0.08 0.06 0.05 0.09 0.11 0.11 0.13 0.10 0.07 0.08 0.08 0.08 0.08 0.09 0.10 0.09 0.07 0.06 0.07 0.07 0.07 0.07 0.09 0.11 0.11 0.12 0.14 0.18 0.24 0.25 0.31 0.41 0.44 0.47
0.30 0.49 0.67 0.47 0.27 0.26 0.45 0.46 0.12 0.06 0.04 0.03 0.05 0.04 0.06 0.08 0.10 0.09 0.08 0.09 0.08 0.08 0.09 0.10 0.11 0.10 0.09 0.08 0.07 0.08 0.09 0.10 0.10 0.10 0.10 0.10 0.11 0.13 0.16 0.17 0.21 0.26 0.30 0.36
0.39 0.67 0.86 0.65 0.43 0.38 0.31 0.14 0.07 0.03 0.02 0.02 0.03 0.03 0.04 0.06 0.08 0.08 0.08 0.09 0.08 0.07 0.08 0.09 0.09 0.09 0.09 0.10 0.09 0.09 0.10 0.10 0.10 0.10 0.11 0.10 0.11 0.13 0.15 0.16 0.17 0.19 0.21 0.27
0.33 0.54 0.55 0.49 0.37 0.27 0.21 0.11 0.04 0.03 0.02 0.02 0.02 0.02 0.04 0.05 0.05 0.05 0.06 0.07 0.08 0.08 0.08 0.09 0.09 0.09 0.09 0.10 0.11 0.10 0.10 0.10 0.11 0.12 0.12 0.11 0.12 0.15 0.15 0.16 0.18 0.19 0.21 0.28
0.11 0.16 0.19 0.21 0.20 0.14 0.11 0.08 0.03 0.02 0.03 0.02 0.02 0.02 0.03 0.05 0.06 0.06 0.06 0.07 0.07 0.09 0.09 0.10 0.11 0.10 0.12 0.11 0.11 0.10 0.11 0.13 0.14 0.14 0.14 0.14 0.15 0.16 0.17 0.18 0.19 0.23 0.28 0.32
0.12 0.08 0.06 0.10 0.11 0.10 0.07 0.04 0.02 0.02 0.03 0.03 0.03 0.04 0.04 0.05 0.09 0.09 0.09 0.09 0.11 0.12 0.11 0.11 0.12 0.13 0.15 0.15 0.13 0.12 0.12 0.13 0.13 0.13 0.14 0.14 0.15 0.16 0.16 0.16 0.20 0.27 0.33 0.37
0.12 0.08 0.07 0.07 0.07 0.06 0.04 0.03 0.02 0.02 0.02 0.03 0.03 0.03 0.04 0.05 0.06 0.08 0.09 0.09 0.10 0.12 0.12 0.11 0.11 0.13 0.15 0.18 0.20 0.20 0.17 0.14 0.13 0.12 0.13 0.13 0.14 0.14 0.15 0.15 0.20 0.23 0.23 0.25
0.08 0.06 0.06 0.05 0.05 0.04 0.04 0.03 0.02 0.02 0.03 0.04 0.04 0.04 0.04 0.03 0.03 0.06 0.08 0.07 0.07 0.07 0.08 0.09 0.10 0.10 0.10 0.12 0.14 0.15 0.17 0.16 0.14 0.13 0.13 0.14 0.15 0.16 0.18 0.16 0.13 0.14 0.15 0.17
0.05 0.07 0.07 0.05 0.05 0.05 0.04 0.04 0.04 0.04 0.04 0.04 0.04 0.04 0.03 0.03 0.03 0.04 0.05 0.05 0.06 0.07 0.07 0.08 0.08 0.09 0.09 0.08 0.09 0.11 0.13 0.14 0.15 0.17 0.17 0.18 0.20 0.23 0.27 0.29 0.27 0.20 0.16 0.15
0.05 0.06 0.06 0.06 0.06 0.06 0.06 0.06 0.07 0.06 0.06 0.07 0.06 0.04 0.03 0.03 0.04 0.04 0.05 0.06 0.07 0.08 0.07 0.07 0.08 0.08 0.09 0.08 0.08 0.09 0.09 0.11 0.14 0.21 0.25 0.23 0.24 0.30 0.32 0.28 0.24 0.23 0.20 0.18
0.08 0.07 0.07 0.08 0.08 0.07 0.06 0.06 0.06 0.06 0.07 0.07 0.07 0.07 0.06 0.04 0.04 0.04 0.05 0.06 0.07 0.08 0.08 0.09 0.09 0.09 0.09 0.08 0.08 0.08 0.10 0.13 0.15 0.20 0.23 0.23 0.22 0.24 0.26 0.27 0.26 0.27 0.26 0.25
0.10 0.10 0.11 0.12 0.11 0.08 0.06 0.06 0.06 0.06 0.06 0.07 0.08 0.07 0.07 0.06 0.06 0.06 0.05 0.06 0.06 0.07 0.07 0.08 0.09 0.09 0.10 0.09 0.09 0.09 0.11 0.14 0.16 0.19 0.20 0.20 0.21 0.22 0.24 0.27 0.29 0.31 0.30 0.31
0.11 0.11 0.12 0.13 0.12 0.10 0.08 0.07 0.07 0.07 0.06 0.07 0.08 0.09 0.09 0.08 0.08 0.07 0.07 0.07 0.07 0.09 0.09 0.10 0.11 0.11 0.11 0.11 0.11 0.11 0.13 0.15 0.17 0.20 0.21 0.20 0.22 0.25 0.28 0.28 0.27 0.29 0.29 0.31
0.16 0.15 0.15 0.15 0.14 0.12 0.10 0.09 0.09 0.09 0.07 0.07 0.07 0.08 0.09 0.08 0.08 0.07 0.07 0.08 0.08 0.08 0.08 0.10 0.12 0.11 0.10 0.11 0.13 0.14 0.15 0.18 0.20 0.22 0.23 0.23 0.24 0.26 0.29 0.28 0.27 0.29 0.30 0.31
0.17 0.16 0.15 0.14 0.13 0.12 0.11 0.10 0.09 0.10 0.09 0.08 0.08 0.09 0.09 0.09 0.09 0.09 0.09 0.09 0.09 0.09 0.08 0.09 0.12 0.12 0.12 0.13 0.14 0.15 0.17 0.21 0.25 0.27 0.29 0.29 0.29 0.29 0.30 0.29 0.31 0.32 0.32 0.33
0.13 0.12 0.11 0.11 0.10 0.10 0.10 0.10 0.11 0.11 0.09 0.09 0.09 0.09 0.09 0.09 0.09 0.10 0.11 0.10 0.09 0.08 0.08 0.10 0.10 0.10 0.12 0.16 0.18 0.19 0.21 0.23 0.25 0.27 0.28 0.29 0.31 0.31 0.32 0.32 0.33 0.36 0.36 0.35
0.14 0.11 0.10 0.09 0.09 0.08 0.08 0.09 0.09 0.09 0.09 0.09 0.09 0.09 0.08 0.09 0.09 0.09 0.09 0.10 0.09 0.11 0.11 0.11 0.11 0.12 0.17 0.19 0.17 0.18 0.21 0.23 0.26 0.29 0.31 0.32 0.33 0.34 0.35 0.36 0.38 0.40 0.41 0.43
0.15 0.13 0.12 0.10 0.09 0.08 0.10 0.11 0.10 0.09 0.10 0.10 0.10 0.10 0.10 0.10 0.10 0.10 0.10 0.10 0.11 0.14 0.14 0.14 0.16 0.20 0.26 0.21 0.16 0.17 0.20 0.22 0.23 0.26 0.31 0.36 0.38 0.40 0.41 0.41 0.41 0.42 0.44 0.47
0.16 0.14 0.12 0.11 0.10 0.12 0.14 0.13 0.11 0.11 0.11 0.12 0.11 0.11 0.12 0.13 0.13 0.12 0.13 0.15 0.17 0.19 0.17 0.18 0.22 0.27 0.30 0.24 0.22 0.22 0.24 0.25 0.25 0.25 0.28 0.32 0.38 0.40 0.41 0.43 0.44 0.45 0.45 0.45
0.17 0.15 0.15 0.15 0.16 0.18 0.16 0.15 0.15 0.15 0.16 0.18 0.17 0.15 0.14 0.16 0.18 0.17 0.16 0.17 0.20 0.22 0.21 0.23 0.27 0.31 0.30 0.27 0.27 0.27 0.30 0.32 0.34 0.33 0.33 0.35 0.39 0.42 0.44 0.46 0.49 0.52 0.52 0.49
0.17 0.17 0.19 0.22 0.23 0.20 0.19 0.19 0.18 0.17 0.18 0.19 0.18 0.17 0.17 0.18 0.18 0.17 0.17 0.18 0.20 0.25 0.28 0.28 0.29 0.30 0.31 0.33 0.34 0.34 0.34 0.35 0.36 0.36 0.37 0.41 0.44 0.46 0.49 0.53 0.54 0.58 0.58 0.55
0.19 0.20 0.21 0.21 0.20 0.20 0.21 0.21 0.20 0.18 0.18 0.19 0.19 0.17 0.18 0.20 0.20 0.21 0.21 0.21 0.23 0.27 0.33 0.36 0.36 0.37 0.40 0.40 0.40 0.40 0.40 0.41 0.41 0.42 0.43 0.45 0.48 0.50 0.52 0.56 0.60 0.64 0.66 0.64

GEFSNGP_prec_meanprecacc_234.txt.gz
Total_Precipitation_Accumulation
0.26 0.25 0.34 0.55 0.65 0.63 0.61 0.68 0.90 0.89 0.81 0.77 0.72 0.74 0.76 0.81 0.78 0.70 0.65 0.66 0.71 0.76 0.76 0.73 0.68 0.72 0.75 0.80 0.91 1.06 1.20 1.17 1.03 0.85 0.72 0.65 0.60 0.53 0.52 0.54 0.55 0.63 0.70 0.72
0.13 0.13 0.22 0.37 0.48 0.50 0.47 0.47 0.56 0.62 0.61 0.52 0.49 0.53 0.55 0.57 0.53 0.49 0.45 0.42 0.41 0.43 0.42 0.41 0.37 0.34 0.35 0.42 0.58 0.83 1.08 1.06 0.84 0.67 0.54 0.50 0.51 0.50 0.48 0.47 0.52 0.57 0.56 0.59
0.14 0.11 0.18 0.40 0.42 0.39 0.40 0.33 0.34 0.39 0.39 0.35 0.38 0.45 0.46 0.51 0.53 0.40 0.32 0.30 0.30 0.30 0.29 0.27 0.26 0.25 0.26 0.34 0.45 0.62 0.73 0.71 0.61 0.50 0.47 0.50 0.52 0.47 0.46 0.47 0.48 0.50 0.49 0.50
0.17 0.18 0.44 0.66 0.57 0.48 0.44 0.26 0.19 0.20 0.22 0.26 0.36 0.40 0.41 0.40 0.41 0.40 0.29 0.21 0.21 0.21 0.21 0.24 0.24 0.27 0.30 0.35 0.40 0.44 0.48 0.49 0.44 0.41 0.42 0.45 0.46 0.45 0.52 0.58 0.55 0.55 0.56 0.55
0.26 0.32 0.51 0.59 0.52 0.52 0.51 0.37 0.17 0.14 0.15 0.15 0.15 0.17 0.20 0.21 0.19 0.20 0.17 0.13 0.12 0.12 0.12 0.14 0.13 0.14 0.15 0.17 0.18 0.19 0.19 0.21 0.22 0.21 0.23 0.24 0.25 0.32 0.42 0.49 0.53 0.56 0.60 0.60
0.31 0.40 0.51 0.41 0.25 0.28 0.40 0.49 0.15 0.09 0.08 0.07 0.05 0.10 0.12 0.13 0.14 0.11 0.09 0.10 0.09 0.08 0.09 0.11 0.10 0.10 0.08 0.07 0.07 0.08 0.08 0.09 0.11 0.12 0.13 0.13 0.15 0.19 0.25 0.26 0.31 0.42 0.45 0.48
0.31 0.50 0.68 0.48 0.27 0.26 0.46 0.47 0.12 0.06 0.05 0.04 0.06 0.05 0.07 0.09 0.12 0.11 0.09 0.10 0.10 0.09 0.09 0.10 0.11 0.10 0.09 0.08 0.08 0.08 0.10 0.12 0.12 0.11 0.12 0.12 0.13 0.15 0.17 0.18 0.22 0.26 0.31 0.37
0.39 0.68 0.87 0.65 0.44 0.39 0.32 0.14 0.07 0.04 0.03 0.03 0.04 0.04 0.05 0.07 0.10 0.10 0.09 0.09 0.10 0.08 0.09 0.10 0.10 0.10 0.10 0.10 0.10 0.10 0.11 0.11 0.12 0.12 0.12 0.12 0.13 0.15 0.17 0.17 0.18 0.20 0.22 0.28
0.34 0.55 0.56 0.49 0.38 0.28 0.21 0.11 0.04 0.03 0.02 0.02 0.03 0.03 0.05 0.07 0.06 0.07 0.08 0.08 0.09 0.10 0.10 0.11 0.10 0.10 0.09 0.11 0.12 0.11 0.11 0.11 0.12 0.14 0.13 0.12 0.14 0.16 0.18 0.18 0.20 0.21 0.24 0.30
0.11 0.16 0.19 0.21 0.20 0.14 0.11 0.08 0.03 0.02 0.03 0.03 0.03 0.03 0.03 0.06 0.07 0.07 0.07 0.08 0.08 0.10 0.11 0.12 0.12 0.11 0.12 0.12 0.11 0.10 0.11 0.13 0.14 0.15 0.15 0.15 0.16 0.17 0.19 0.20 0.22 0.25 0.30 0.34
0.12 0.08 0.06 0.10 0.11 0.10 0.07 0.04 0.02 0.02 0.03 0.04 0.04 0.05 0.05 0.06 0.09 0.10 0.09 0.10 0.12 0.13 0.12 0.12 0.13 0.14 0.16 0.16 0.13 0.12 0.12 0.13 0.13 0.14 0.15 0.16 0.17 0.17 0.17 0.18 0.22 0.30 0.36 0.40
0.13 0.08 0.07 0.08 0.07 0.06 0.05 0.03 0.02 0.02 0.03 0.03 0.03 0.04 0.05 0.06 0.07 0.09 0.10 0.09 0.10 0.12 0.12 0.12 0.12 0.13 0.15 0.18 0.20 0.20 0.17 0.15 0.13 0.13 0.14 0.14 0.15 0.16 0.17 0.18 0.22 0.25 0.26 0.28
0.09 0.07 0.06 0.06 0.06 0.05 0.04 0.04 0.03 0.02 0.03 0.04 0.04 0.05 0.05 0.04 0.04 0.06 0.08 0.07 0.07 0.07 0.09 0.09 0.10 0.10 0.11 0.12 0.14 0.15 0.17 0.17 0.14 0.13 0.13 0.15 0.16 0.18 0.20 0.18 0.15 0.16 0.17 0.19
0.06 0.08 0.08 0.06 0.06 0.05 0.05 0.05 0.04 0.04 0.04 0.04 0.05 0.05 0.05 0.05 0.04 0.04 0.05 0.05 0.06 0.07 0.07 0.08 0.09 0.09 0.09 0.09 0.10 0.11 0.13 0.15 0.15 0.17 0.18 0.19 0.22 0.25 0.29 0.32 0.30 0.22 0.18 0.18
0.06 0.07 0.07 0.06 0.06 0.06 0.06 0.07 0.07 0.07 0.07 0.07 0.07 0.06 0.05 0.05 0.05 0.04 0.05 0.06 0.07 0.08 0.07 0.07 0.08 0.08 0.09 0.08 0.09 0.09 0.09 0.11 0.15 0.22 0.26 0.25 0.27 0.32 0.35 0.30 0.26 0.26 0.23 0.21
0.09 0.08 0.08 0.08 0.09 0.08 0.07 0.07 0.07 0.07 0.07 0.07 0.08 0.09 0.08 0.05 0.05 0.05 0.06 0.06 0.07 0.08 0.08 0.09 0.09 0.10 0.09 0.09 0.08 0.09 0.10 0.13 0.16 0.21 0.24 0.24 0.25 0.28 0.29 0.29 0.28 0.30 0.29 0.29
0.11 0.11 0.12 0.13 0.12 0.10 0.07 0.07 0.06 0.07 0.07 0.08 0.09 0.09 0.09 0.07 0.07 0.07 0.06 0.06 0.07 0.08 0.07 0.08 0.09 0.10 0.10 0.09 0.09 0.09 0.11 0.14 0.17 0.19 0.21 0.21 0.24 0.27 0.29 0.30 0.31 0.33 0.33 0.34
0.12 0.12 0.13 0.14 0.14 0.11 0.09 0.08 0.08 0.08 0.08 0.08 0.09 0.10 0.10 0.10 0.09 0.08 0.07 0.07 0.08 0.09 0.09 0.10 0.11 0.11 0.11 0.11 0.11 0.11 0.13 0.15 0.18 0.21 0.22 0.22 0.24 0.29 0.32 0.32 0.30 0.31 0.32 0.34
0.17 0.16 0.16 0.16 0.15 0.14 0.12 0.10 0.09 0.10 0.09 0.08 0.08 0.10 0.10 0.10 0.09 0.08 0.08 0.08 0.09 0.08 0.08 0.10 0.12 0.11 0.11 0.11 0.13 0.14 0.16 0.18 0.21 0.23 0.24 0.24 0.26 0.30 0.33 0.31 0.30 0.31 0.33 0.34
0.18 0.17 0.15 0.15 0.14 0.13 0.12 0.11 0.10 0.11 0.10 0.10 0.10 0.10 0.11 0.10 0.10 0.10 0.10 0.10 0.10 0.09 0.08 0.10 0.12 0.13 0.13 0.13 0.15 0.15 0.18 0.22 0.26 0.28 0.30 0.30 0.30 0.33 0.34 0.32 0.33 0.35 0.35 0.35
0.14 0.12 0.12 0.12 0.11 0.11 0.11 0.11 0.12 0.12 0.12 0.11 0.11 0.11 0.11 0.10 0.10 0.11 0.12 0.12 0.10 0.09 0.08 0.10 0.10 0.10 0.13 0.16 0.19 0.20 0.22 0.24 0.27 0.29 0.30 0.30 0.32 0.34 0.36 0.35 0.36 0.38 0.39 0.38
0.14 0.12 0.11 0.11 0.10 0.10 0.10 0.11 0.11 0.10 0.12 0.13 0.12 0.12 0.11 0.11 0.10 0.10 0.11 0.11 0.11 0.12 0.12 0.11 0.11 0.13 0.18 0.21 0.18 0.19 0.22 0.24 0.27 0.31 0.33 0.33 0.34 0.36 0.38 0.40 0.41 0.42 0.43 0.45
0.16 0.14 0.13 0.12 0.10 0.10 0.12 0.12 0.10 0.10 0.11 0.12 0.13 0.13 0.13 0.13 0.13 0.12 0.11 0.10 0.11 0.15 0.15 0.15 0.17 0.21 0.27 0.23 0.17 0.19 0.21 0.23 0.24 0.27 0.32 0.37 0.40 0.42 0.43 0.43 0.42 0.44 0.46 0.49
0.17 0.15 0.13 0.12 0.11 0.13 0.15 0.14 0.13 0.13 0.13 0.13 0.13 0.13 0.14 0.15 0.15 0.14 0.14 0.15 0.17 0.19 0.17 0.19 0.23 0.29 0.32 0.25 0.23 0.23 0.25 0.26 0.26 0.26 0.28 0.33 0.39 0.41 0.42 0.44 0.45 0.47 0.46 0.47
0.18 0.17 0.16 0.16 0.18 0.19 0.17 0.17 0.17 0.16 0.17 0.18 0.17 0.15 0.15 0.17 0.19 0.18 0.16 0.17 0.21 0.23 0.22 0.24 0.29 0.33 0.31 0.29 0.29 0.29 0.31 0.33 0.34 0.34 0.33 0.35 0.39 0.43 0.45 0.47 0.51 0.53 0.53 0.51
0.19 0.19 0.21 0.24 0.24 0.21 0.20 0.20 0.20 0.18 0.18 0.19 0.18 0.17 0.17 0.18 0.19 0.18 0.18 0.19 0.21 0.26 0.29 0.29 0.30 0.32 0.33 0.35 0.36 0.35 0.35 0.36 0.37 0.37 0.38 0.42 0.45 0.48 0.52 0.55 0.57 0.60 0.61 0.57
0.21 0.22 0.23 0.22 0.21 0.21 0.22 0.22 0.21 0.19 0.18 0.20 0.19 0.18 0.18 0.20 0.21 0.22 0.22 0.23 0.24 0.28 0.34 0.38 0.38 0.39 0.42 0.42 0.42 0.41 0.42 0.43 0.43 0.43 0.45 0.47 0.50 0.51 0.54 0.58 0.63 0.66 0.68 0.67

GEFSNGP_prec_meanprecacc_240.txt.gz
Total_Precipitation_Accumulation
0.26 0.25 0.34 0.55 0.65 0.63 0.62 0.68 0.90 0.89 0.81 0.77 0.73 0.75 0.77 0.81 0.79 0.70 0.65 0.66 0.71 0.77 0.78 0.74 0.69 0.74 0.77 0.81 0.92 1.08 1.22 1.19 1.05 0.88 0.75 0.68 0.62 0.54 0.54 0.55 0.56 0.64 0.71 0.73
0.14 0.14 0.22 0.38 0.48 0.50 0.47 0.47 0.56 0.62 0.61 0.52 0.49 0.54 0.55 0.58 0.53 0.49 0.45 0.42 0.42 0.43 0.44 0.43 0.38 0.36 0.37 0.44 0.60 0.84 1.10 1.07 0.86 0.69 0.56 0.52 0.53 0.52 0.49 0.48 0.53 0.58 0.56 0.60
0.16 0.12 0.19 0.40 0.42 0.40 0.41 0.33 0.34 0.40 0.39 0.35 0.39 0.45 0.46 0.52 0.53 0.41 0.33 0.31 0.30 0.30 0.30 0.29 0.27 0.26 0.28 0.35 0.47 0.64 0.75 0.73 0.64 0.53 0.50 0.52 0.54 0.48 0.48 0.48 0.49 0.51 0.49 0.50
0.17 0.19 0.45 0.67 0.57 0.48 0.44 0.27 0.19 0.20 0.23 0.26 0.37 0.40 0.42 0.41 0.42 0.41 0.30 0.22 0.21 0.21 0.21 0.24 0.25 0.29 0.33 0.37 0.41 0.45 0.49 0.51 0.46 0.44 0.45 0.48 0.49 0.47 0.53 0.59 0.56 0.55 0.56 0.55
0.27 0.33 0.53 0.61 0.53 0.52 0.51 0.37 0.18 0.15 0.15 0.15 0.15 0.17 0.20 0.22 0.20 0.20 0.17 0.14 0.13 0.12 0.12 0.14 0.14 0.15 0.16 0.19 0.20 0.20 0.20 0.21 0.23 0.22 0.25 0.27 0.28 0.34 0.45 0.51 0.54 0.57 0.61 0.61
0.32 0.41 0.52 0.42 0.26 0.28 0.41 0.50 0.15 0.09 0.09 0.07 0.06 0.10 0.12 0.13 0.14 0.12 0.09 0.11 0.10 0.08 0.09 0.11 0.11 0.11 0.09 0.09 0.09 0.09 0.09 0.10 0.12 0.13 0.13 0.14 0.17 0.22 0.28 0.28 0.33 0.43 0.46 0.48
0.31 0.50 0.68 0.48 0.28 0.27 0.47 0.48 0.13 0.06 0.05 0.04 0.06 0.06 0.07 0.09 0.12 0.11 0.10 0.10 0.10 0.09 0.09 0.11 0.12 0.11 0.10 0.10 0.09 0.09 0.11 0.13 0.14 0.13 0.13 0.13 0.14 0.17 0.21 0.21 0.25 0.28 0.32 0.38
0.40 0.69 0.88 0.66 0.44 0.40 0.33 0.15 0.07 0.04 0.03 0.03 0.04 0.04 0.05 0.08 0.10 0.10 0.09 0.10 0.10 0.09 0.09 0.11 0.11 0.11 0.10 0.11 0.11 0.10 0.11 0.12 0.14 0.14 0.14 0.13 0.14 0.17 0.20 0.21 0.21 0.22 0.23 0.28
0.35 0.55 0.56 0.49 0.38 0.28 0.22 0.11 0.04 0.03 0.02 0.02 0.03 0.03 0.05 0.07 0.07 0.07 0.08 0.08 0.09 0.10 0.10 0.11 0.11 0.11 0.10 0.11 0.12 0.12 0.12 0.12 0.14 0.16 0.15 0.13 0.15 0.18 0.20 0.22 0.23 0.23 0.25 0.31
0.12 0.17 0.19 0.21 0.20 0.14 0.12 0.08 0.03 0.03 0.03 0.03 0.03 0.03 0.04 0.06 0.08 0.07 0.08 0.08 0.08 0.10 0.11 0.12 0.12 0.12 0.13 0.12 0.12 0.11 0.13 0.14 0.16 0.16 0.16 0.16 0.17 0.18 0.20 0.23 0.25 0.27 0.31 0.35
0.13 0.09 0.07 0.10 0.11 0.10 0.07 0.04 0.02 0.02 0.03 0.04 0.04 0.06 0.05 0.07 0.10 0.10 0.10 0.11 0.13 0.13 0.13 0.12 0.13 0.14 0.16 0.16 0.13 0.12 0.13 0.14 0.14 0.15 0.16 0.17 0.17 0.18 0.19 0.20 0.25 0.33 0.38 0.41
0.14 0.09 0.08 0.09 0.08 0.07 0.05 0.04 0.03 0.02 0.03 0.04 0.04 0.05 0.06 0.06 0.07 0.09 0.10 0.10 0.12 0.14 0.14 0.13 0.12 0.14 0.16 0.18 0.20 0.21 0.18 0.15 0.14 0.14 0.15 0.15 0.16 0.17 0.19 0.20 0.25 0.28 0.28 0.30
0.10 0.08 0.07 0.07 0.07 0.06 0.05 0.04 0.03 0.03 0.04 0.05 0.05 0.06 0.06 0.06 0.06 0.08 0.09 0.09 0.09 0.10 0.11 0.11 0.11 0.10 0.11 0.13 0.14 0.16 0.17 0.17 0.15 0.14 0.14 0.16 0.17 0.18 0.21 0.19 0.17 0.18 0.20 0.22
0.07 0.08 0.09 0.07 0.07 0.06 0.05 0.05 0.05 0.04 0.04 0.05 0.06 0.07 0.07 0.07 0.06 0.06 0.07 0.07 0.08 0.10 0.10 0.10 0.09 0.09 0.10 0.09 0.10 0.11 0.13 0.15 0.16 0.18 0.19 0.20 0.23 0.26 0.29 0.32 0.30 0.23 0.19 0.19
0.06 0.07 0.08 0.07 0.07 0.07 0.07 0.07 0.08 0.07 0.07 0.07 0.07 0.07 0.07 0.07 0.07 0.07 0.07 0.08 0.09 0.10 0.10 0.10 0.09 0.09 0.09 0.09 0.09 0.09 0.10 0.11 0.15 0.22 0.26 0.25 0.27 0.33 0.35 0.30 0.27 0.26 0.24 0.22
0.09 0.08 0.08 0.09 0.10 0.09 0.07 0.07 0.07 0.07 0.07 0.08 0.09 0.10 0.09 0.07 0.07 0.07 0.08 0.09 0.10 0.11 0.11 0.11 0.10 0.10 0.10 0.09 0.09 0.09 0.10 0.14 0.17 0.21 0.25 0.24 0.26 0.29 0.30 0.30 0.29 0.30 0.30 0.30
0.11 0.11 0.12 0.14 0.13 0.10 0.08 0.07 0.07 0.07 0.08 0.09 0.10 0.10 0.10 0.09 0.09 0.09 0.08 0.08 0.09 0.11 0.10 0.09 0.10 0.10 0.10 0.09 0.09 0.10 0.11 0.14 0.17 0.20 0.22 0.22 0.25 0.28 0.30 0.31 0.33 0.34 0.34 0.36
0.13 0.13 0.14 0.16 0.15 0.12 0.10 0.08 0.08 0.08 0.08 0.09 0.10 0.12 0.12 0.12 0.12 0.11 0.10 0.10 0.11 0.11 0.12 0.12 0.12 0.12 0.11 0.11 0.11 0.11 0.13 0.16 0.18 0.22 0.23 0.23 0.26 0.30 0.34 0.34 0.32 0.34 0.35 0.37
0.18 0.17 0.16 0.17 0.16 0.15 0.13 0.11 0.10 0.10 0.10 0.09 0.10 0.12 0.12 0.11 0.11 0.09 0.09 0.11 0.12 0.11 0.11 0.12 0.14 0.12 0.11 0.12 0.14 0.14 0.16 0.19 0.22 0.24 0.25 0.25 0.28 0.32 0.35 0.34 0.33 0.35 0.37 0.38
0.19 0.17 0.16 0.16 0.15 0.14 0.14 0.12 0.11 0.12 0.13 0.12 0.11 0.12 0.13 0.12 0.12 0.12 0.12 0.13 0.13 0.11 0.08 0.10 0.13 0.13 0.13 0.14 0.15 0.16 0.19 0.23 0.27 0.30 0.31 0.31 0.32 0.35 0.37 0.35 0.36 0.39 0.39 0.39
0.15 0.14 0.13 0.13 0.13 0.13 0.13 0.13 0.14 0.14 0.14 0.14 0.13 0.13 0.13 0.12 0.12 0.12 0.13 0.14 0.11 0.09 0.09 0.10 0.10 0.11 0.13 0.17 0.19 0.20 0.22 0.25 0.27 0.30 0.30 0.31 0.33 0.36 0.38 0.37 0.38 0.41 0.41 0.41
0.15 0.13 0.12 0.12 0.11 0.11 0.12 0.12 0.13 0.12 0.13 0.15 0.15 0.14 0.13 0.12 0.11 0.11 0.12 0.12 0.11 0.12 0.12 0.11 0.11 0.13 0.18 0.21 0.18 0.20 0.22 0.24 0.27 0.31 0.33 0.34 0.35 0.37 0.40 0.41 0.42 0.43 0.44 0.47
0.16 0.15 0.14 0.13 0.11 0.11 0.13 0.14 0.12 0.12 0.13 0.13 0.14 0.15 0.15 0.15 0.15 0.13 0.12 0.10 0.11 0.15 0.15 0.15 0.18 0.22 0.28 0.23 0.18 0.19 0.21 0.23 0.25 0.28 0.33 0.38 0.41 0.42 0.45 0.45 0.44 0.45 0.47 0.51
0.18 0.16 0.13 0.13 0.12 0.13 0.16 0.16 0.15 0.14 0.14 0.14 0.14 0.14 0.15 0.17 0.17 0.15 0.15 0.16 0.18 0.20 0.18 0.19 0.24 0.30 0.33 0.26 0.23 0.23 0.25 0.26 0.26 0.26 0.29 0.34 0.39 0.42 0.44 0.46 0.48 0.49 0.48 0.48
0.19 0.17 0.17 0.17 0.19 0.20 0.18 0.18 0.19 0.17 0.17 0.19 0.18 0.16 0.16 0.18 0.20 0.20 0.18 0.18 0.21 0.24 0.23 0.25 0.30 0.34 0.32 0.29 0.29 0.30 0.32 0.34 0.35 0.35 0.34 0.36 0.40 0.45 0.48 0.50 0.54 0.56 0.55 0.52
0.21 0.20 0.22 0.25 0.25 0.23 0.22 0.22 0.21 0.19 0.19 0.20 0.19 0.18 0.18 0.19 0.19 0.19 0.19 0.20 0.21 0.27 0.30 0.30 0.30 0.32 0.33 0.35 0.37 0.36 0.36 0.37 0.38 0.38 0.39 0.43 0.47 0.50 0.55 0.58 0.59 0.63 0.62 0.58
0.22 0.23 0.24 0.24 0.23 0.23 0.24 0.23 0.22 0.20 0.19 0.21 0.21 0.19 0.19 0.21 0.22 0.23 0.23 0.24 0.26 0.30 0.35 0.39 0.38 0.40 0.43 0.43 0.43 0.42 0.43 0.44 0.44 0.44 0.46 0.48 0.51 0.54 0.56 0.61 0.65 0.68 0.70 0.68